{"data":{"norad_id":65067,"intl_designator":"2025-165M","name":"STARLINK-34802","alt_names":[],"object_type":"PAYLOAD","status":"ACTIVE","operator":null,"country":"US","launch_date":"2025-07-31","launch_site_code":"AFWTR","launch_vehicle":null,"mission":null,"orbit_class":"UNKNOWN","rcs_meters":null,"size_class":null,"mass_kg":null,"dimensions":null,"purposes":["comms"],"wikipedia_slug":null,"has_3d_model":false,"image_url":null,"decayed_at":null,"tle_current":{"epoch":"2026-05-25T05:04:16.805568Z","epoch_age_seconds":59964,"freshness":"FRESH","line1":"1 65067U 25165M   26145.21130562  .00004403  00000+0  30896-3 0  9990","line2":"2 65067  97.4506 222.2714 0001766 145.3477 214.7866 15.05657277 46300","mean_motion":15.05657277,"eccentricity":0.0001766,"inclination_deg":97.4506,"raan_deg":222.2714,"arg_perigee_deg":145.3477,"mean_anomaly_deg":214.7866,"bstar":0.00030896,"rev_number":4630,"period_min":95.639294678612,"perigee_km":548.26541393092,"apogee_km":550.71225137501,"semimajor_km":6927.625832653,"source":"CELESTRAK","updated_at":"2026-05-25T13:38:20.678592Z"}}}